Tracking 30157 objects as of 12-Feb-2025
HD Live streaming from Space Station
objects crossing your sky now

PEGASUS DEB

Track PEGASUS DEB now!
10-day predictions


NORAD ID: 24165
Int'l Code: 1994-029HQ
Perigee: 509.6 km
Apogee: 693.3 km
Inclination: 82.2 °
Period: 96.6 minutes
Semi major axis: 6972 km
RCS: 0.0387 m2 (small)
Launch date: May 19, 1994
Source: United States (US)
Launch site: AIR FORCE WESTERN TEST RANGE (AFWTR)

Note: This is SATELLITE DEBRIS
Your satellite tracking list
Your tracking list is empty




NASA's NSSDC Master Catalog

Two Line Element Set (TLE):
1 24165U 94029HQ  25042.63939269  .00038229  00000-0  32467-2 0  9990
2 24165  82.1628 276.8062 0131682 213.8481 145.4284 14.91159050487187
Source of the keplerian elements: AFSPC